This is the latest recevied weather packets stored in our database for station/object IZ1RFL-3. If no packets are shown the sender has not sent any weather packets the latest 1 day(s).
| Time | Temp. | Humidity | Pressure | Rain* | Wind** | Luminosity | Snow |
|---|---|---|---|---|---|---|---|
| 1777987866 | 15° C | 74% | 1014.3 hPa | - | 0 m/s | - | - |
| 1777986966 | 15° C | 76% | 1014.3 hPa | - | 0 m/s | - | - |
| 1777986066 | 14.44° C | 78% | 1014.4 hPa | - | 0 m/s | - | - |
| 1777985166 | 15° C | 75% | 1014.6 hPa | - | 0 m/s | - | - |
| 1777984266 | 14.44° C | 77% | 1014.6 hPa | - | 0 m/s | - | - |
| 1777983366 | 14.44° C | 76% | 1014.5 hPa | - | 0 m/s | - | - |
| 1777982466 | 15° C | 78% | 1014.5 hPa | - | 0 m/s | - | - |
| 1777981566 | 13.89° C | 78% | 1014.6 hPa | - | 0 m/s | - | - |
| 1777980666 | 13.89° C | 80% | 1014.7 hPa | - | 0 m/s | - | - |
| 1777979766 | 13.89° C | 80% | 1014.7 hPa | - | 0 m/s | - | - |
| 1777978866 | 13.89° C | 78% | 1014.8 hPa | - | 0 m/s | - | - |
| 1777977966 | 13.89° C | 77% | 1014.9 hPa | - | 0 m/s | - | - |
| 1777977066 | 13.89° C | 79% | 1014.9 hPa | - | 0 m/s | - | - |
| 1777976166 | 13.33° C | 81% | 1014.9 hPa | - | 0 m/s | - | - |
| 1777975266 | 12.78° C | 82% | 1015 hPa | - | 0 m/s | - | - |
| 1777974366 | 12.78° C | 80% | 1015 hPa | - | 0 m/s | - | - |
| 1777973466 | 12.78° C | 83% | 1014.9 hPa | - | 0 m/s | - | - |
| 1777972566 | 11.67° C | 85% | 1014.8 hPa | - | 0 m/s | - | - |
| 1777971666 | 12.22° C | 83% | 1014.8 hPa | - | 0 m/s | - | - |
| 1777970766 | 12.22° C | 82% | 1014.7 hPa | - | 0 m/s | - | - |
| 1777969866 | 12.22° C | 82% | 1014.7 hPa | - | 0 m/s | - | - |
| 1777968965 | 12.22° C | 81% | 1014.6 hPa | - | 0 m/s | - | - |
| 1777968066 | 12.22° C | 81% | 1014.6 hPa | - | 0 m/s | - | - |
| 1777967165 | 12.22° C | 81% | 1014.4 hPa | - | 0 m/s | - | - |
| 1777966266 | 12.22° C | 80% | 1014.4 hPa | - | 0 m/s | - | - |
* Rain since midnight (hover to see other rain measurements)
** Current wind speed in m/s (hover to see current wind gust speed)